Regional Weather Roundup
Issued by NWS

Home | Current Version | Previous Version | Graphics & Text | Print | Product List | Glossary On
Versions: 1 2 3 4 5 6 7 8 9 10 11 12 13 14 15 16 17 18 19 20 21 22 23 24 25 26 27 28 29 30 31 32 33 34 35 36 37 38 39 40 41 42 43 44 45 46 47 48 49 50
578
ASUS43 KLOT 231703
RWRIL

ILLINOIS REGIONAL WEATHER ROUNDUP
NATIONAL WEATHER SERVICE CHICAGO/ROMEOVILLE IL
1200 PM CDT TUE AUG 23 2016

NOTE: "FAIR" INDICATES FEW OR NO CLOUDS BELOW 12,000 FEET WITH NO
SIGNIFICANT WEATHER AND/OR OBSTRUCTIONS TO VISIBILITY.

* THESE STATIONS ARE NOT UNDER NWS QUALITY CONTROL. THEY ALSO MAY NOT
  REPORT WEATHER SUCH AS PRECIPITATION OR FOG.

ILZ001-002-007-009-015-016-024-231800-
NORTHWEST ILLINOIS

CITY           SKY/WX    TMP DP  RH WIND       PRES   REMARKS
MOLINE         SUNNY     79  64  60 S15G23    30.13F HX  81
STERLING*      MOSUNNY   78  63  59 VRB6      30.17F HX  80
SAVANNA*       MOSUNNY   79  64  59 S13       30.14F HX  81
$$

ILZ003-004-008-010-011-017-018-231800-
NORTH CENTRAL ILLINOIS

CITY           SKY/WX    TMP DP  RH WIND       PRES   REMARKS
ROCKFORD       PTSUNNY   77  62  59 S16G25    30.19F
FREEPORT*      MOSUNNY   77  64  63 S14G20    30.19S
ROCHELLE*      MOSUNNY   76  64  66 SW14G20   30.20F
$$

ILZ005-006-012>014-019>023-231800-
NORTHEAST ILLINOIS

CITY           SKY/WX    TMP DP  RH WIND       PRES   REMARKS
CHICAGO-OHARE  PTSUNNY   78  61  55 S15       30.20F HX  80
CHICAGO-MIDWAY MOSUNNY   79  59  50 S14       30.21F HX  80
AURORA         PTSUNNY   79  63  57 S13       30.20F HX  80
LANSING*       CLOUDY    78  62  57 S16       30.23F HX  80
JOLIET*        MOSUNNY   81  65  58 S12       30.21F HX  82
WAUKEGAN       MOSUNNY   79  61  53 S13       30.18F HX  80
DUPAGE AIRPORT MOSUNNY   77  61  57 SW15      30.20F
KANKAKEE*      MOSUNNY   78  62  57 S15       30.23F HX  80
WHEELING       MOSUNNY   78  59  51 S14G24    30.21F
MORRIS*        PTSUNNY   78  63  60 S9G16     30.20F
ROMEOVILLE*    CLOUDY    76  60  57 SW12G18   30.21F
NORTHERLY ISL    N/A     78  57  48 S8          N/A
$$

LMZ740>746-231800-
SOUTHERN LAKE MICHIGAN

STATION/POSITION SKY/WX   TEMP    WIND        PRES    VSBY  WAVE
                          AIR SEA DIR/SP/G                  HT/PER
                          (F)     (DEG/KT/KT) (MB)    (MI)  (FT/S)
SOUTHERN BUOY              73 74  180/ 17/ 21 1022.5          3/ 5
WILMETTE HARBOR            75 72  220/ 12/ 16   N/A           2/ 3
HARRISON CRIB              75     190/ 16/ 17   N/A
BURNHAM HARBOR             76     190/ 15       N/A
CALUMET HARBOR             76     180/ 10/ 15 1023.0F
BURNS HARBOR               76     180/  9/ 18 1024.4S
MICHIGAN CITY              74     180/ 15/ 17   N/A
MICHIGAN CITY 6N           74 73  190/ 10/ 16   N/A           1
ST. JOSEPH                 74 75  190/ 12/ 14 1024.0S         2/ 4
$$

ILZ025>027-034>036-040-047-049-050-058-095>099-231800-
WEST-CENTRAL ILLINOIS

CITY           SKY/WX    TMP DP  RH WIND       PRES   REMARKS
QUINCY         CLOUDY    77  67  71 S14       30.13F
GALESBURG*     SUNNY     78  64  62 S12       30.16F HX  80
MACOMB*        PTSUNNY   77  65  65 S12G18    30.17F
PITTSFIELD*    CLOUDY    74  66  77 SE10G20   30.18S
$$

ILZ028>032-037-038-041>044-048-051>054-059>061-231800-
CENTRAL ILLINOIS

CITY           SKY/WX    TMP DP  RH WIND       PRES   REMARKS
PONTIAC        PTSUNNY   79  66  64 S10       30.22F HX  81
BLOOMINGTON    MOSUNNY   78  62  57 S13       30.22F HX  80
DECATUR        MOSUNNY   79  63  57 S13G21    30.22F HX  80
PEORIA         SUNNY     80  62  54 S12G21    30.18F HX  81
LACON*         PTSUNNY   78  60  54 S14       30.18F
LINCOLN*       MOSUNNY   80  64  57 S10G16    30.20F HX  81
SPRINGFIELD    CLOUDY    80  64  58 S12       30.19F HX  82
TAYLORVILLE    MOSUNNY   78  65  62 S13       30.21F HX  80
$$

ILZ033-039-045-046-055>057-062-063-231800-
EAST-CENTRAL ILLINOIS

CITY           SKY/WX    TMP DP  RH WIND       PRES   REMARKS
CHAMPAIGN      MOSUNNY   76  63  64 S10G20    30.23F
RANTOUL*       MOSUNNY   78  64  62 S13       30.23F HX  80
MATTOON        SUNNY     78  61  55 S10       30.23F HX  80
PARIS*         MOSUNNY   77  65  65 S5        30.26F
$$

ILZ079-100>102-231800-
SOUTHWEST ILLINOIS

CITY           SKY/WX    TMP DP  RH WIND       PRES   REMARKS
BELLEVILLE     DRIZZLE   73  64  73 S9        30.20S
CAHOKIA*       LGT RAIN  72  66  81 SE6       30.20F
SPARTA*        CLOUDY    73  65  77 SE8       30.22F
$$

ILZ064>066-069>071-074>076-080>082-084>086-088>090-092>094-231800-
SOUTH-CENTRAL ILLINOIS

CITY           SKY/WX    TMP DP  RH WIND       PRES   REMARKS
CARBONDALE     CLOUDY    75  64  68 S12       30.22F
EFFINGHAM*     MOSUNNY   80  64  59 SE8       30.24F HX  81
MARION         CLOUDY    79  68  69 S8        30.23F HX  81
MT. VERNON     MOSUNNY   81  63  54 S9        30.24F HX  82
CENTRALIA*     MOSUNNY   80  67  63 S12       30.22S HX  83
SALEM*         PTSUNNY   79  64  59 S13       30.22F HX  81
$$

ILZ067-068-072-073-078-083-087-091-231800-
SOUTHEAST ILLINOIS

CITY           SKY/WX    TMP DP  RH WIND       PRES   REMARKS
LAWRENCEVILLE  SUNNY     80  61  52 SE10      30.25F HX  81
FLORA*         SUNNY     80  65  59 S9        30.24S HX  82
FAIRFIELD*     MOSUNNY   78  64  60 S8        30.23S HX  80
HARRISBURG*    CLOUDY    75  66  71 SE6       30.24F
ROBINSON*      MOSUNNY   77  65  64 S8        30.25F
CARMI*         CLOUDY    79  64  60 S9        30.24F HX  80
$$

ABBREVIATIONS USED IN REMARKS
   TC - TEMPERATURE IN CELSIUS
  WCI - WIND CHILL INDEX
   HX - HEAT INDEX
  VSB - VISIBILITY
$$





USA.gov is the U.S. government's official web portal to all federal, state and local government web resources and services.